TimeEDT,TemperatureF,Dew PointF,Humidity,Sea Level PressureIn,VisibilityMPH,Wind Direction,Wind SpeedMPH,Gust SpeedMPH,PrecipitationIn,Events,Conditions,WindDirDegrees,DateUTC
12:51 AM,55.9,43.0,62,30.26,10.0,South,11.5,-,N/A,,Clear,170,2013-05-05 04:51:00
1:51 AM,54.0,43.0,66,30.26,10.0,South,8.1,-,N/A,,Clear,170,2013-05-05 05:51:00
2:51 AM,51.1,42.1,71,30.26,10.0,South,6.9,-,N/A,,Clear,170,2013-05-05 06:51:00
3:51 AM,50.0,41.0,71,30.27,10.0,SSE,5.8,-,N/A,,Clear,160,2013-05-05 07:51:00
4:51 AM,46.9,39.9,77,30.27,10.0,South,4.6,-,N/A,,Clear,180,2013-05-05 08:51:00
5:51 AM,46.0,39.9,79,30.28,10.0,South,3.5,-,N/A,,Clear,170,2013-05-05 09:51:00
6:51 AM,48.0,41.0,77,30.29,10.0,South,3.5,-,N/A,,Clear,180,2013-05-05 10:51:00
7:51 AM,50.0,39.0,66,30.30,10.0,South,6.9,-,N/A,,Clear,170,2013-05-05 11:51:00
8:51 AM,54.0,36.0,51,30.30,10.0,South,5.8,-,N/A,,Clear,180,2013-05-05 12:51:00
9:51 AM,57.0,35.1,44,30.28,10.0,South,5.8,-,N/A,,Clear,190,2013-05-05 13:51:00
10:51 AM,61.0,34.0,36,30.27,10.0,ESE,4.6,-,N/A,,Partly Cloudy,110,2013-05-05 14:51:00
11:51 AM,63.0,32.0,31,30.25,10.0,Variable,3.5,-,N/A,,Partly Cloudy,0,2013-05-05 15:51:00
12:51 PM,68.0,33.1,27,30.22,10.0,NNE,3.5,-,N/A,,Partly Cloudy,30,2013-05-05 16:51:00
1:51 PM,70.0,33.1,26,30.20,10.0,SSW,5.8,-,N/A,,Partly Cloudy,210,2013-05-05 17:51:00
2:51 PM,73.0,34.0,24,30.18,10.0,South,4.6,-,N/A,,Partly Cloudy,190,2013-05-05 18:51:00
3:51 PM,73.0,33.1,23,30.16,10.0,South,5.8,-,N/A,,Partly Cloudy,190,2013-05-05 19:51:00
4:51 PM,73.9,30.0,20,30.14,10.0,WSW,8.1,-,N/A,,Clear,250,2013-05-05 20:51:00
5:51 PM,73.0,30.9,21,30.14,10.0,SSW,9.2,-,N/A,,Clear,200,2013-05-05 21:51:00
6:51 PM,72.0,28.0,20,30.14,10.0,South,9.2,-,N/A,,Clear,190,2013-05-05 22:51:00
7:51 PM,69.1,27.0,21,30.15,10.0,South,6.9,-,N/A,,Clear,170,2013-05-05 23:51:00
8:51 PM,66.0,27.0,23,30.17,10.0,SSE,4.6,-,N/A,,Clear,150,2013-05-06 00:51:00
9:51 PM,64.0,28.0,26,30.19,10.0,SSE,5.8,-,N/A,,Clear,150,2013-05-06 01:51:00
10:51 PM,60.1,39.9,47,30.20,10.0,South,13.8,-,N/A,,Clear,170,2013-05-06 02:51:00
11:51 PM,57.0,41.0,55,30.21,10.0,SSE,9.2,-,N/A,,Clear,160,2013-05-06 03:51:00